Location: Hannover
(52.3723°N, 9.7339°E)
Time: 10:06:23
(UTC+01:00)

ISS - Pass Details

Date: 07 January 2018
Orbit: 402 x 407 km, 51.6° (Epoch: 21 January)

Event Time Altitude Azimuth Distance (km) Brightness Sun altitude
Exits shadow 05:55:57 54° 103° (ESE) 499 -3.1 -22.2°
Drops below altitude 10° 05:58:36 10° 93° (E) 1,470 0.1 -21.8°
Sets 06:00:41 0° 92° (E) 2,332 1.5 -21.5°
